GFSNE_925_thetae_021.txt.gz
Theta_e
336 336 335 334 334 333 333 332 330 331 328 325 324 324 325 325 326 326 325 321 318 318 317 317 317 316 317 318 321 330 334 337 339 341 344 346 345 347
336 336 336 334 334 333 333 332 331 329 330 325 325 325 326 326 326 326 326 321 319 319 318 317 316 316 317 317 318 319 328 333 336 339 338 338 343 345
336 335 336 335 334 333 333 332 331 330 329 326 326 327 326 327 328 328 327 326 324 322 320 318 317 317 317 318 318 318 319 327 333 336 339 336 338 339
334 335 335 334 335 329 331 332 331 331 329 329 328 328 328 328 328 328 327 325 324 323 321 317 317 318 317 317 318 318 318 319 327 333 336 337 337 335
334 335 335 334 334 331 332 331 331 331 330 329 327 327 327 327 326 326 326 325 325 323 321 320 320 319 318 318 318 318 319 318 319 327 334 336 338 335
334 335 335 333 333 330 331 330 331 330 329 328 327 327 327 326 325 325 325 324 324 323 322 321 321 320 319 320 320 320 319 319 319 320 329 335 338 337
335 335 333 330 328 327 329 329 330 330 328 328 327 327 326 325 325 324 324 324 323 322 321 321 321 320 320 320 320 321 321 321 319 321 323 333 337 337
335 334 333 330 328 326 324 322 325 329 328 328 327 327 326 326 324 324 324 322 324 321 322 321 320 320 320 320 320 321 321 320 322 324 325 330 336 337
335 334 330 331 328 326 323 323 324 323 323 326 326 325 325 323 323 322 321 321 322 322 320 321 320 320 319 320 320 320 320 320 320 320 324 330 334 336
335 332 332 330 327 323 324 325 325 325 324 323 322 321 321 320 319 319 318 319 320 320 320 322 320 319 318 318 319 319 319 320 320 320 321 331 334 335
331 330 327 325 324 323 322 324 323 323 322 318 317 316 315 316 316 315 317 321 321 320 319 319 318 317 318 318 319 319 319 319 320 320 320 329 335 336
328 326 324 323 322 320 320 322 322 321 319 318 318 317 317 318 317 318 319 320 320 320 318 317 317 317 319 319 320 320 322 321 321 320 321 329 336 337
326 326 325 321 318 318 319 319 319 315 315 316 316 316 317 318 318 318 318 318 319 318 316 317 317 318 319 320 321 322 323 323 323 321 321 329 336 337
328 326 322 317 316 316 315 315 313 311 314 315 315 315 315 315 315 315 314 316 318 316 316 316 318 321 322 321 322 322 323 325 326 329 329 329 337 337
323 321 317 316 315 314 313 312 311 313 313 313 313 313 312 311 312 311 313 316 317 316 315 316 320 323 322 322 322 323 324 329 329 334 335 335 337 336
318 317 315 315 314 314 312 312 311 310 309 309 309 308 309 309 308 309 313 315 315 315 316 317 320 323 323 323 323 325 326 333 333 334 334 335 336 337
316 317 317 316 316 315 313 310 309 308 307 306 306 306 306 305 306 308 312 315 315 315 315 317 318 321 323 320 325 330 330 335 334 333 333 331 332 335
315 317 317 317 315 312 310 308 307 305 305 304 304 304 304 304 304 308 311 311 314 316 315 317 318 319 323 320 318 316 329 336 333 333 334 333 331 333
315 316 316 314 311 308 306 304 304 303 302 303 302 302 302 303 304 308 310 308 314 314 315 316 316 316 321 322 318 315 314 326 334 334 335 337 336 333
314 314 312 308 306 304 303 302 301 301 301 301 302 302 302 302 304 306 309 310 311 311 314 316 314 314 316 319 320 318 315 320 326 335 335 336 337 337
310 308 306 305 304 303 301 299 298 300 299 301 301 301 301 301 302 303 308 309 309 307 314 313 312 314 314 315 315 315 314 316 315 318 331 335 337 334
307 306 304 304 303 300 298 297 299 300 300 300 300 300 300 301 301 302 306 307 307 307 307 310 312 314 312 313 314 312 312 313 313 314 314 316 327 338
307 306 304 303 300 298 297 298 299 299 299 299 299 299 300 300 300 301 303 306 306 308 306 310 308 309 309 309 311 310 310 310 311 310 311 314 313 330

GFSNE_925_thetae_024.txt.gz
Theta_e
335 336 336 332 332 332 331 331 331 333 331 329 328 327 327 327 327 328 328 329 327 321 318 318 318 317 317 317 317 318 317 318 327 334 337 340 346 347
335 335 336 333 332 332 332 332 332 332 333 328 327 327 328 329 329 329 330 329 328 327 325 321 319 319 317 317 317 317 318 317 318 323 332 337 339 344
336 335 335 336 334 332 332 332 332 331 331 329 328 328 329 331 330 330 330 329 328 327 325 324 322 320 318 317 318 318 317 318 318 318 321 331 336 339
336 335 335 334 334 335 332 331 331 331 330 331 330 329 329 328 329 330 330 328 327 327 326 325 324 321 320 319 320 319 318 318 318 318 318 320 330 335
335 335 335 334 334 333 333 331 330 330 330 331 331 329 328 328 328 329 328 326 326 326 325 324 324 323 322 321 321 320 320 319 320 319 319 318 319 330
336 336 336 334 334 333 333 332 332 332 330 329 329 329 328 328 328 328 327 325 324 325 325 324 323 322 322 322 322 321 321 320 320 320 321 320 318 319
337 336 336 335 333 332 331 330 331 329 329 327 327 327 328 329 329 327 325 325 324 325 323 322 322 323 323 323 323 322 322 321 321 321 321 322 320 319
337 336 336 335 333 331 329 327 326 327 328 328 327 328 328 328 325 325 325 324 326 322 322 322 323 324 323 323 322 321 320 320 320 321 320 321 321 321
338 338 335 333 332 333 332 329 326 327 326 326 327 327 326 325 325 325 324 323 322 322 323 324 323 323 322 322 322 321 320 320 320 320 320 320 321 321
335 331 330 331 332 331 331 329 329 328 328 328 326 325 324 323 322 320 320 320 321 322 322 325 324 323 321 321 320 320 319 318 318 319 319 319 320 320
329 327 328 330 330 327 327 327 327 326 325 324 322 320 319 318 318 319 320 321 323 322 322 323 321 321 321 320 318 319 319 318 318 318 319 319 319 320
327 328 327 329 326 326 323 325 325 325 324 323 321 320 320 321 320 320 320 322 322 322 319 320 320 320 318 317 318 320 321 322 322 320 319 319 319 320
327 327 329 328 326 322 319 322 324 322 320 319 319 317 318 319 320 320 320 319 318 317 317 320 320 318 317 317 318 319 321 322 325 323 321 320 320 320
331 332 330 328 323 318 317 318 317 316 317 318 316 317 318 318 317 316 316 316 315 317 320 320 318 317 317 318 321 323 322 323 322 323 324 323 321 320
329 330 327 323 317 315 315 315 315 316 318 316 316 316 316 314 314 313 313 312 314 319 321 320 318 317 318 319 323 323 323 323 323 324 325 327 323 320
325 324 320 318 318 319 317 315 316 317 315 314 314 313 312 312 311 310 308 310 316 319 319 320 318 317 317 320 322 323 324 325 325 331 329 330 328 324
325 324 322 321 321 320 320 318 316 314 313 312 312 311 311 309 308 307 308 313 318 318 320 319 318 317 316 318 318 316 316 323 328 332 331 332 333 332
318 321 322 321 321 320 318 316 314 312 312 310 309 309 308 306 306 306 310 313 317 318 318 319 317 316 315 318 319 317 316 318 331 336 334 334 332 333
317 319 320 320 319 318 315 313 311 310 309 308 308 307 305 305 305 307 309 313 316 317 312 319 316 315 315 318 317 315 314 315 318 333 334 336 336 333
316 317 318 318 316 314 312 310 309 308 308 306 306 305 304 304 305 305 309 313 314 314 312 313 313 313 313 315 316 314 313 313 313 316 335 337 337 339
314 314 313 313 312 311 309 308 306 305 303 304 304 304 304 304 304 304 306 311 310 314 315 314 311 312 312 312 313 312 311 311 311 311 315 334 338 335
311 310 310 310 310 309 306 304 303 304 304 303 303 303 303 303 303 304 304 307 312 313 313 315 311 311 310 311 311 310 309 309 310 310 312 311 313 338
310 309 309 309 307 304 302 302 303 303 302 302 302 302 302 303 303 303 304 304 308 311 314 308 306 307 307 307 310 309 308 307 308 308 308 310 311 315

GFSNE_925_thetae_030.txt.gz
Theta_e
338 337 337 336 334 333 333 332 335 338 336 332 333 331 330 329 330 329 330 330 330 331 330 328 328 327 324 321 319 318 317 317 317 317 318 318 317 319
338 336 338 337 334 335 332 333 332 332 337 332 331 332 332 331 331 332 331 330 330 331 331 330 329 328 327 326 324 321 319 319 318 317 318 318 317 317
337 336 338 336 335 334 335 335 334 333 335 331 331 332 331 330 330 330 330 330 333 332 330 330 329 328 327 326 325 324 322 320 319 318 318 319 317 318
339 338 337 337 336 335 335 335 333 332 333 334 333 333 332 332 331 331 330 331 330 331 329 329 328 327 327 326 325 324 324 323 323 321 320 319 319 319
338 339 337 337 337 335 336 335 335 334 334 333 334 333 331 330 330 331 331 330 329 328 328 328 327 328 327 326 326 325 325 324 323 323 322 322 321 321
339 338 338 338 336 336 335 334 335 334 334 332 332 332 332 330 330 329 329 329 329 327 328 329 326 325 327 326 325 325 324 323 323 323 323 323 323 322
339 338 337 338 336 338 336 336 333 329 329 330 330 329 329 329 329 328 329 330 328 327 325 324 324 324 323 323 323 323 326 325 325 324 324 323 323 321
340 340 338 339 338 337 335 332 328 330 330 329 331 330 329 329 330 329 329 328 327 327 326 324 323 323 322 320 324 324 325 323 322 323 322 321 321 321
341 340 340 340 339 337 335 327 329 329 329 329 329 328 329 328 328 328 328 327 326 324 322 322 322 323 324 325 325 326 323 323 323 321 320 319 318 318
341 340 340 340 339 337 334 329 327 328 329 329 328 328 327 327 327 326 322 321 321 322 323 324 322 324 325 325 323 323 321 320 318 318 318 318 319 319
338 338 339 342 340 337 332 328 329 327 327 326 327 328 328 327 325 323 321 322 322 322 323 323 323 323 320 320 319 320 320 321 319 319 318 318 318 318
339 338 337 338 338 335 331 329 331 330 330 329 328 328 326 324 321 322 322 322 322 323 323 322 317 316 315 316 320 322 322 321 319 319 318 319 320 320
337 338 339 338 336 334 330 328 330 330 328 326 324 322 321 322 323 323 324 323 323 323 319 315 316 316 317 319 321 321 321 319 318 318 318 320 319 321
338 337 337 336 332 330 329 328 326 324 320 321 321 321 322 321 318 317 315 315 314 315 314 316 319 320 321 320 321 320 319 318 317 318 319 316 317 318
336 335 333 332 332 330 328 324 320 318 319 320 321 321 317 316 315 314 315 313 311 310 309 311 317 318 318 320 320 319 318 316 316 317 314 314 315 316
334 330 329 327 326 325 323 321 320 320 320 321 319 317 317 315 314 313 311 309 308 309 313 317 315 318 318 318 318 318 316 316 316 314 312 311 313 314
329 329 325 325 324 323 322 322 322 321 320 320 318 316 314 313 312 310 308 307 310 312 316 316 317 318 318 316 316 315 315 314 311 311 310 310 311 314
327 331 329 328 328 326 325 323 322 321 319 318 316 314 314 312 310 309 308 310 309 312 316 314 317 317 315 314 314 314 314 310 309 308 309 309 311 316
326 326 324 324 323 321 320 320 319 318 315 314 313 313 311 310 309 308 308 308 309 308 312 316 315 312 313 314 312 312 311 308 307 308 307 306 308 313
319 320 320 320 321 321 319 317 316 315 314 312 310 308 308 308 307 307 308 307 307 307 314 315 313 313 311 312 313 312 309 307 307 307 305 305 310 322
320 318 317 316 316 315 315 314 313 313 310 308 307 308 308 306 306 307 306 307 307 309 315 312 310 311 313 312 311 310 308 307 306 306 304 304 307 311
315 314 313 313 313 313 313 312 310 308 307 308 308 305 305 305 306 306 306 307 307 308 307 311 312 311 308 308 309 309 307 306 305 304 303 302 304 308
315 314 313 313 312 312 310 307 306 306 306 306 305 304 304 305 306 305 306 306 306 307 306 310 311 308 307 306 308 308 305 306 304 303 301 302 301 302

GFSNE_925_thetae_033.txt.gz
Theta_e
336 337 333 333 335 333 332 332 331 330 329 331 330 331 331 328 328 329 328 329 330 329 328 329 330 329 328 327 326 324 323 320 318 317 317 317 317 317
339 336 336 336 337 333 334 333 333 332 327 331 330 330 332 331 331 331 331 332 331 329 329 331 330 329 329 329 328 327 326 325 323 321 319 318 317 317
338 338 338 338 337 334 335 335 334 334 333 332 331 332 333 332 331 331 330 329 328 328 330 331 331 330 328 328 327 326 325 324 323 323 322 320 318 317
339 338 337 337 336 332 333 333 334 333 334 333 332 331 332 331 332 329 329 331 329 329 329 329 329 327 328 327 328 328 326 325 324 324 323 322 321 320
338 337 336 336 335 337 336 337 336 335 334 333 333 332 331 331 330 332 332 331 330 328 327 328 327 328 327 325 325 325 326 326 326 325 324 323 323 322
340 339 338 336 336 336 335 335 334 334 334 334 332 331 330 329 329 329 328 327 328 329 329 328 326 324 324 324 323 323 323 322 323 324 325 324 324 323
340 337 338 336 337 337 336 335 335 335 334 330 329 329 329 328 328 328 330 329 328 327 326 324 325 325 324 322 318 319 320 319 321 324 324 322 322 322
341 339 339 337 338 338 337 337 335 335 331 329 329 329 329 329 329 329 328 327 326 325 326 323 321 319 320 321 321 322 323 325 324 324 323 322 321 320
341 339 340 338 338 338 338 336 335 331 328 328 329 329 328 326 325 327 327 327 327 324 319 320 321 322 322 322 322 323 323 323 324 322 321 318 318 318
341 341 340 339 339 337 337 335 334 330 328 327 328 329 327 324 328 328 328 326 323 321 320 321 322 323 322 321 319 317 316 318 318 317 317 318 317 316
341 340 339 340 338 338 337 336 334 331 329 327 327 327 328 327 326 328 325 322 320 321 321 322 322 321 316 312 310 313 316 318 319 320 319 318 317 317
337 338 334 338 336 335 334 334 331 330 329 330 330 329 327 326 322 323 323 322 321 321 322 322 320 319 313 313 314 317 318 319 320 320 318 318 317 317
335 335 336 338 336 335 334 334 331 329 329 328 327 324 321 320 321 321 317 318 320 320 315 318 320 316 316 316 319 318 318 319 320 319 318 316 316 316
339 339 337 336 335 333 331 330 329 327 327 325 320 319 320 320 317 315 314 315 315 315 310 309 312 313 319 318 317 317 317 316 317 317 315 315 317 316
339 338 336 335 333 332 331 330 328 325 320 318 319 320 319 317 315 313 312 310 309 308 308 310 314 316 318 317 317 317 315 315 314 314 314 315 312 310
336 334 332 329 329 329 328 327 324 321 319 319 320 320 319 315 314 312 310 308 307 307 308 310 315 316 317 316 318 316 314 313 313 313 311 308 309 309
334 331 327 327 326 324 324 324 322 320 320 319 320 319 315 313 312 310 309 308 308 309 308 308 312 315 315 315 316 313 313 313 312 310 308 308 307 308
329 329 329 326 325 325 324 322 322 322 322 321 319 314 313 312 310 309 308 307 308 308 307 307 315 313 313 313 313 313 312 311 309 308 307 307 306 306
327 328 330 327 324 326 326 325 324 322 321 315 314 313 311 308 308 307 306 307 307 307 306 313 312 310 309 312 313 312 312 310 308 307 306 305 304 304
325 323 321 321 323 322 320 318 314 314 312 311 310 309 308 307 307 306 306 306 306 306 308 314 311 311 310 312 312 311 309 307 306 305 304 302 303 303
320 318 315 315 315 314 314 313 312 311 310 308 307 308 308 306 305 305 306 305 306 306 307 307 311 310 309 308 308 308 307 305 305 303 301 301 302 303
314 313 313 313 313 313 312 311 310 308 307 307 308 306 305 304 304 305 304 305 306 306 305 308 311 307 307 306 305 306 305 304 304 302 300 300 301 302
314 314 313 312 312 312 311 307 306 305 306 305 304 304 304 304 305 304 305 306 306 305 305 305 310 307 304 306 305 305 304 303 303 302 300 298 299 299

GFSNE_925_thetae_036.txt.gz
Theta_e
333 337 333 334 335 333 333 332 330 327 325 330 330 330 332 329 329 328 328 328 329 331 330 329 329 330 329 329 329 328 327 326 325 322 319 318 318 317
337 335 335 333 335 334 333 332 332 330 325 330 330 330 332 331 331 330 331 330 330 330 330 330 330 332 331 330 329 329 328 327 325 324 323 322 321 320
338 338 335 335 336 336 334 334 333 333 330 332 331 331 332 332 331 331 332 331 331 332 330 329 328 328 330 329 327 328 328 328 326 325 324 324 323 322
338 339 337 336 336 337 334 334 334 332 333 332 332 332 330 331 331 330 330 331 331 331 330 329 328 327 329 328 328 326 325 327 327 327 326 325 324 324
337 338 338 337 337 336 333 333 333 334 334 334 333 332 330 330 330 329 330 330 328 326 325 328 329 329 325 324 324 324 324 324 323 323 325 325 325 325
336 338 339 338 336 335 333 335 336 335 335 333 332 332 331 329 329 328 328 326 327 326 327 327 326 323 322 323 323 323 321 319 321 322 323 324 323 324
339 338 340 338 337 336 334 336 335 334 334 334 332 329 328 327 328 328 328 328 327 324 323 322 322 319 317 316 318 320 321 322 323 323 324 324 323 323
340 337 338 340 339 338 335 336 337 335 334 333 332 328 327 327 328 328 328 327 326 325 325 325 320 319 320 321 321 321 322 323 323 324 324 323 323 321
341 338 335 339 339 339 337 338 338 336 335 333 330 328 327 327 328 326 326 327 326 327 326 322 320 319 321 321 321 321 320 318 316 316 316 317 316 317
339 337 338 340 339 339 338 337 337 336 334 330 329 327 327 327 329 326 327 328 327 327 323 321 321 321 321 321 320 315 310 311 314 316 316 317 317 319
340 340 342 342 340 338 337 337 335 333 332 331 329 328 328 328 328 326 325 325 322 323 322 320 321 320 319 317 314 311 313 316 316 317 316 317 318 319
342 341 341 341 340 338 337 337 333 331 333 330 329 329 329 327 325 321 320 322 321 319 318 319 319 318 317 316 314 313 316 316 317 316 315 315 316 318
339 339 340 337 336 334 335 334 333 332 331 329 328 328 326 320 319 319 315 315 318 318 314 316 317 315 314 314 317 316 315 316 316 314 314 314 314 314
340 340 337 337 338 337 335 333 331 330 329 327 326 322 319 320 317 316 313 313 311 310 308 307 309 309 313 316 316 316 316 316 314 314 313 312 312 313
340 339 339 337 336 335 331 331 330 329 327 324 320 318 319 318 316 314 313 310 309 307 307 307 308 311 316 317 316 315 315 315 313 313 311 311 311 309
339 338 335 335 332 330 330 330 329 328 325 320 319 319 320 319 314 313 311 309 308 306 307 307 307 311 315 316 314 313 314 314 312 311 310 309 308 307
335 333 330 329 327 327 327 326 327 325 321 319 319 320 319 314 312 310 309 308 307 306 307 306 306 312 314 312 312 312 313 313 311 310 309 307 307 306
332 331 328 326 326 326 325 324 323 322 321 320 320 319 315 312 310 308 307 306 306 306 305 306 309 312 311 311 311 312 312 311 309 307 306 306 304 304
328 329 328 328 327 327 326 325 324 323 322 322 317 313 311 308 307 306 305 305 305 305 306 309 313 310 306 308 310 310 310 309 307 305 305 303 302 301
326 326 324 322 322 322 322 322 321 319 314 311 311 308 307 307 306 305 305 305 304 305 306 305 308 310 308 307 308 308 307 306 305 304 303 302 300 301
320 317 319 321 321 318 316 314 313 312 311 309 307 307 306 305 304 304 305 304 305 305 305 304 309 308 307 306 305 305 305 304 303 302 302 300 300 300
316 314 314 314 314 314 313 312 311 308 307 306 307 306 304 304 304 305 304 304 305 304 304 304 307 307 304 304 304 304 303 303 303 302 301 300 299 300
313 313 313 312 312 312 311 307 306 305 305 306 304 303 303 304 305 304 304 304 304 303 304 304 305 308 304 303 303 303 302 301 302 301 300 299 297 296

GFSNE_925_thetae_042.txt.gz
Theta_e
332 334 334 334 333 333 331 330 329 332 331 327 330 329 330 331 330 329 329 328 328 328 327 327 327 329 329 329 330 329 330 330 329 328 328 326 325 323
332 331 332 333 334 333 332 332 331 329 332 328 329 329 330 330 330 329 329 329 329 329 329 328 329 329 330 329 329 328 327 328 327 327 326 327 326 325
335 333 331 332 333 333 333 332 331 330 329 329 329 330 330 330 331 332 331 330 330 331 331 330 330 331 329 328 326 327 327 327 327 326 324 326 327 327
337 335 333 334 333 333 334 334 333 332 331 330 331 331 331 331 330 329 327 327 328 329 331 331 329 326 325 328 327 325 324 323 323 323 323 323 323 323
340 337 333 334 336 334 334 335 334 333 332 332 331 331 331 331 330 326 325 326 328 328 327 326 326 326 326 325 321 319 318 317 318 320 320 320 321 322
343 340 336 332 333 336 335 335 335 334 333 332 332 333 333 332 330 327 326 326 327 327 327 326 324 323 322 322 318 319 320 320 320 321 321 322 322 321
344 344 340 336 334 335 336 335 335 334 332 332 332 332 331 330 329 328 326 326 327 325 322 324 324 325 325 322 319 318 320 319 320 320 318 315 314 319
344 345 344 340 336 335 336 337 337 336 333 334 333 332 331 330 330 327 326 327 327 324 325 326 326 326 324 321 321 321 320 320 320 316 311 309 312 313
346 345 342 341 339 335 336 336 338 337 336 335 334 334 332 332 329 327 327 326 326 326 326 326 324 322 321 321 317 315 315 315 315 314 310 314 315 315
347 345 344 343 341 338 338 337 338 339 337 336 335 335 333 329 329 328 328 327 326 327 324 323 321 321 317 315 314 312 310 311 311 310 312 314 315 315
347 345 345 343 342 342 339 338 337 338 337 336 335 332 330 329 329 328 327 326 323 322 320 320 320 317 314 310 310 309 309 310 313 313 314 314 315 315
346 346 345 345 343 340 338 337 338 338 336 334 333 331 330 330 328 327 325 324 321 320 316 317 316 315 313 309 309 308 312 311 312 313 312 312 313 315
342 345 344 344 340 340 340 340 340 337 335 334 331 330 329 327 326 321 319 317 317 317 314 315 314 314 313 311 308 308 311 312 312 310 309 313 313 312
346 346 343 341 340 340 340 338 336 335 334 332 331 328 326 323 319 318 316 314 313 312 310 309 314 309 309 310 310 310 311 310 309 309 311 311 311 309
345 342 339 338 338 338 336 336 336 335 332 330 326 325 321 318 318 316 314 313 312 310 307 306 305 306 306 307 310 312 313 312 308 310 310 310 309 309
340 340 338 338 337 337 337 336 335 332 330 328 326 321 318 318 319 318 315 312 309 308 305 305 305 305 305 307 312 312 311 312 309 309 308 308 308 308
341 339 338 337 335 333 332 331 329 329 329 327 323 318 318 318 318 315 313 309 307 305 304 304 305 307 307 307 311 310 310 308 307 307 306 306 306 306
337 334 333 334 331 329 328 327 328 328 327 325 321 319 319 318 318 313 309 307 304 304 303 304 305 305 306 306 306 309 309 308 305 305 305 305 305 304
335 333 332 331 330 327 325 325 325 325 324 323 321 320 319 319 313 310 306 304 304 303 304 304 304 306 309 309 308 307 307 305 304 303 304 304 304 303
334 332 332 330 328 325 323 323 323 322 322 322 321 320 318 312 308 306 303 303 303 303 304 303 303 303 306 310 309 307 304 303 302 302 303 303 302 301
332 331 330 327 325 325 325 323 323 323 323 322 319 313 309 307 305 303 303 303 303 303 304 304 303 303 304 306 306 306 303 300 298 301 302 302 301 300
328 327 327 326 324 322 321 321 320 320 317 313 310 307 306 304 303 303 303 303 303 303 302 302 303 303 305 306 307 304 300 298 299 300 302 301 300 300
325 321 318 319 320 320 318 317 315 313 311 310 307 306 304 303 303 303 303 303 302 302 301 303 303 303 304 303 302 300 298 297 298 300 301 301 299 297

GFSNE_925_thetae_045.txt.gz
Theta_e
337 334 336 338 337 337 335 335 335 335 334 334 333 331 333 333 332 331 334 332 328 327 328 328 327 327 328 329 329 329 328 328 330 329 328 328 327 326
340 337 334 337 337 337 336 335 334 334 335 333 333 333 331 333 331 330 331 329 329 329 330 330 329 328 329 329 329 328 328 327 326 327 327 327 325 327
339 338 336 336 335 336 336 336 335 334 335 335 333 332 330 332 334 333 334 333 333 330 329 330 331 330 330 330 329 326 327 327 326 325 325 324 324 325
342 339 338 337 335 337 336 337 335 335 335 337 335 335 333 335 335 333 334 329 329 329 327 330 330 329 327 326 326 327 325 324 324 324 324 323 323 322
344 342 340 338 336 336 336 336 336 337 336 335 334 335 335 334 334 332 329 331 330 328 327 328 327 326 325 325 325 321 318 318 318 317 318 318 318 318
345 344 343 340 337 337 336 338 338 337 337 336 336 335 335 335 334 334 333 332 332 330 328 329 327 327 323 322 322 319 318 319 319 320 320 321 321 318
346 345 344 342 338 333 332 337 338 338 337 337 336 334 335 334 334 334 334 332 330 329 328 329 328 327 327 328 326 322 320 319 319 320 320 317 313 310
348 347 345 342 342 339 333 334 337 339 338 337 335 335 335 335 334 334 333 332 331 330 329 329 328 329 328 327 324 321 320 320 320 319 320 318 312 313
348 348 347 343 343 341 338 332 334 336 337 340 338 338 337 336 335 332 332 330 331 331 330 329 329 328 325 323 322 316 314 313 312 313 313 313 311 313
349 349 348 345 343 343 340 339 337 337 337 337 339 339 338 335 333 333 333 332 331 329 329 328 325 324 322 320 318 315 310 309 310 310 312 313 313 314
350 349 348 346 345 343 343 343 341 340 338 338 338 337 336 334 331 331 330 329 329 328 327 324 321 321 319 318 316 313 308 308 311 312 312 312 311 311
350 348 347 346 345 344 342 340 342 341 338 336 336 335 333 331 330 330 331 330 329 324 322 319 319 318 317 314 314 311 310 311 313 311 308 309 309 313
349 347 346 345 345 343 342 341 341 340 338 338 335 333 333 333 330 329 329 325 322 321 319 318 316 316 314 312 311 310 310 310 312 312 312 312 311 310
348 345 345 347 345 342 339 338 338 339 338 337 335 334 332 330 328 324 322 322 320 318 319 315 314 311 311 310 309 308 309 311 312 311 311 311 309 309
347 344 345 346 342 339 339 339 340 336 335 335 335 332 330 326 322 321 318 315 314 314 312 308 310 309 310 309 308 309 310 310 311 311 309 308 307 307
338 333 336 340 339 339 339 339 336 335 335 333 331 329 324 321 321 320 319 318 316 316 313 306 305 308 308 307 309 310 309 309 310 308 307 307 306 306
336 333 336 336 336 337 337 335 334 334 331 330 329 325 321 321 321 319 318 317 316 315 312 308 309 306 308 311 309 307 308 309 309 307 307 306 305 306
331 334 335 333 332 329 329 330 331 331 330 329 327 323 322 322 321 319 317 316 315 312 309 307 307 307 308 308 308 308 308 308 307 306 305 304 304 306
335 335 335 332 330 328 327 327 326 328 330 328 325 323 323 323 320 319 316 313 312 309 307 307 307 308 308 309 307 309 309 307 305 303 301 303 306 308
335 334 333 331 329 328 328 329 329 328 327 326 324 324 323 322 320 316 314 312 308 307 306 307 307 307 307 307 308 308 307 306 303 301 301 305 306 305
332 332 331 329 330 329 327 326 325 325 325 325 324 323 321 318 316 313 310 306 306 306 307 307 307 304 307 308 307 306 304 301 300 299 302 305 304 302
332 332 331 329 328 327 326 325 325 323 323 323 321 318 315 314 312 308 307 306 306 306 307 306 307 307 307 306 305 304 302 301 299 299 302 302 302 301
331 328 326 326 325 325 325 323 322 321 319 317 315 314 312 310 308 307 306 306 306 306 306 306 306 307 306 305 303 303 301 299 298 301 304 304 301 298

GFSNE_925_thetae_048.txt.gz
Theta_e
348 346 339 335 337 336 336 335 335 337 337 338 333 336 336 336 336 336 336 335 333 328 327 328 328 328 328 327 328 328 329 329 329 327 327 329 328 327
347 346 344 334 337 337 336 334 334 334 336 334 334 335 335 334 336 335 337 336 334 329 329 329 330 330 330 328 329 330 329 329 326 326 327 327 327 326
348 346 346 337 336 336 336 335 335 335 334 334 334 336 338 338 336 336 336 335 335 333 329 327 327 328 331 330 330 330 328 325 327 326 324 324 323 323
350 347 346 342 341 337 337 336 335 336 335 336 336 335 338 338 338 339 336 333 332 330 330 327 327 329 329 328 326 325 325 326 324 321 319 318 318 319
351 350 346 344 342 337 338 337 337 337 338 335 335 337 335 337 339 338 337 335 332 331 331 329 329 328 327 326 325 324 324 320 318 318 318 318 319 320
353 350 348 346 343 342 340 340 338 337 338 337 335 334 337 335 337 336 337 336 335 334 333 331 330 329 327 326 323 322 323 321 318 319 320 319 319 321
354 351 349 347 345 343 341 340 339 340 336 337 337 335 336 335 337 335 335 335 335 336 334 332 331 331 331 329 328 328 327 323 321 320 319 320 320 318
356 353 350 348 346 344 341 339 338 339 339 336 337 336 337 336 336 335 335 335 336 332 334 333 332 331 330 329 327 326 323 321 316 315 317 318 319 317
356 355 353 351 348 347 341 338 334 332 335 341 339 340 338 339 339 338 339 336 335 333 333 333 331 331 329 327 325 323 316 314 311 310 310 311 312 312
356 356 355 353 351 348 345 340 339 334 335 337 340 341 342 342 342 340 337 336 335 334 332 333 330 327 325 323 322 320 316 311 308 308 311 313 312 313
357 357 356 355 354 349 348 345 339 339 341 338 338 339 341 341 339 337 335 335 334 332 330 330 326 322 322 321 319 317 314 311 310 311 312 311 310 308
354 356 355 355 354 351 346 346 345 345 343 340 338 338 339 337 335 335 335 333 333 331 328 325 321 320 319 318 316 315 313 312 311 311 312 312 311 312
353 355 356 354 353 352 348 346 346 346 343 342 339 339 338 336 334 333 334 333 330 325 324 322 319 318 316 315 313 312 312 311 311 313 314 312 312 312
352 350 353 353 351 350 344 344 345 343 343 340 340 338 337 335 334 334 333 328 324 324 323 322 319 316 314 313 312 311 310 310 312 312 312 313 312 311
353 355 353 351 347 342 336 333 342 342 340 340 339 338 336 335 333 330 327 326 325 323 320 319 316 313 311 310 310 310 311 312 311 311 312 311 310 309
342 341 344 340 341 337 336 334 334 339 339 339 338 337 335 331 328 325 323 322 320 320 321 317 315 312 310 310 309 310 310 310 310 311 311 311 309 308
339 336 333 332 333 333 330 332 336 337 336 338 337 334 331 328 325 324 322 322 320 319 318 316 315 313 311 311 312 311 311 310 309 310 310 309 308 307
337 334 334 336 332 332 333 334 336 336 336 334 333 331 328 325 324 324 322 320 320 318 315 312 310 310 310 310 310 310 309 309 309 309 308 306 305 305
336 336 337 335 336 335 333 332 332 334 335 333 332 330 326 325 324 323 322 320 318 315 312 310 310 310 311 312 309 308 309 309 309 307 305 304 304 306
337 338 338 335 333 331 331 331 331 335 335 333 331 328 325 325 325 323 321 319 316 312 310 310 310 311 311 309 308 309 310 309 306 304 303 302 305 307
337 334 333 332 332 331 333 335 335 334 333 331 328 326 326 325 323 321 319 314 311 310 310 310 311 308 307 309 311 309 307 305 303 302 301 303 307 306
335 334 332 331 331 333 334 334 333 331 329 328 327 326 325 323 320 318 315 311 308 308 310 310 309 309 309 309 309 308 306 305 303 301 302 304 305 303
333 333 332 333 333 332 331 329 328 327 327 327 326 324 322 319 317 313 310 309 309 309 309 309 309 309 309 309 307 307 306 304 302 302 303 304 303 302